Погода в Юнгскиле

Швеция     58°13′30″N   11°55′11″E
темп.,
°C
ветер,
м/с
пор.,
м/с
влажн.,
%
обл.,
%
осадки,
мм/ч
давл.,
гПа
погр.,
м
17 июня, чт
чт1723:00+11ю228393 0.0 101823
02:00+10ююв11925 0.0 101814
05:00+10ююв1191100 0.0 101726
08:00+16ююв3552100 0.0 1017305
11:00+23ююв353597 0.0 10161095
14:00+23юз3645100 0.0 1016807
17:00+25ююз4848100 0.0 1014845
20:00+23ю4115848 0.0 1013790
18 июня, пт
пт1823:00+21ю31371100 0.0 1014554
02:00+19ююв4137367 0.0 1012456
05:00+17ю412905 0.5 1011399
08:00+18ююз4894100 0.8 1012443
11:00+23юз476556 0.0 1013651
14:00+24зюз47585 0.0 1014738
17:00+23зюз46555 0.0 1013684
20:00+20зюз3461100 0.0 1013380
19 июня, сб
сб1923:00+14з0191100 0.4 101411
02:00+14всв119498 0.9 101313
05:00+16всв269997 0.5 1012142
08:00+20вюв2589100 0.8 1010263
11:00+26ююз4757100 0.3 1009954
14:00+26ююз61155100 0.4 10091365
17:00+21ююз7127697 0.1 10091239
20:00+16юз5118095 0.3 1010821
20 июня, вс
вс2023:00+12юз5128199 0.0 1012719
02:00+12юз5118092 0.0 1013632
05:00+11юз41088100 0.0 1012420
08:00+14юз4667100 0.0 1013580
11:00+19ююз34405 0.0 1013739
14:00+23юз23236 0.0 10121041
17:00+26юз142232 0.0 10111254
20:00+20св2547100 0.0 1010183
21 июня, пн
пн2123:00+15всв2560100 0.0 101089
02:00+15юв1170100 0.1 100911
05:00+15ююв1194100 1.3 100811
08:00+19в2495100 3.4 1007275
11:00+24ююв3770100 0.3 10061130
14:00+25зюз3565100 1.7 1005754
17:00+26зюз3357100 0.1 1004851
20:00+18з2498100 1.8 1004174